Daviess Cnty AP, Washington,, IN

6:43 AM EDT on September 15, 2019 (GMT -0400)
Daviess County

Weather History for KDCY - July, 2019

Change the Weather History Date:

Sunday, July 21, 2019

  Actual Average (WUND) Record (WUND)
Temperature  
Mean Temperature 82 °F -  
Max Temperature 92 °F - - (-1)
Min Temperature 72 °F - - (-1)
Cooling Degree Days 18    
Growing Degree Days 32 (Base 50)    
Moisture  
Dew Point 75 °F    
Average Humidity 74    
Maximum Humidity 99    
Minimum Humidity 50    
Precipitation  
Precipitation 0.37 in - - ()
Sea Level Pressure  
Sea Level Pressure 29.93 in    
Wind  
Wind Speed 6 mph (SSW)    
Max Wind Speed 23 mph    
Max Gust Speed 33 mph    
Visibility 10 miles    
Events Rain , Thunderstorm    
Averages and records for this station are not official NWS values.
T = Trace of Precipitation, MM = Missing Value Source: NWS Daily Summary

Daily Weather History Graph

Daily Weather History Graph

Search for Another Location

Airport or City:

Astronomy

Jul. 21, 2019 Rise Set
Actual Time 6:40 AM EDT 9:08 PM EDT
Civil Twilight 6:09 AM EDT 9:39 PM EDT
Nautical Twilight 5:32 AM EDT 10:17 PM EDT
Astronomical Twilight 4:50 AM EDT 10:58 PM EDT
Moon No Moon Rise 10:58 AM EDT (7/21)
Length of Visible Light 15h 29m
Length of Day
14h 28m
Waning Gibbous, 80% of the Moon is Illuminated
Jul 21
Waning Gibbous
Jul 24
Last Quarter
Jul 31
New
Aug 7
First Quarter
Aug 15
Full

Hourly Weather History & Observations

Time (EDT) Temp. Heat Index Dew Point Humidity Pressure Visibility Wind Dir Wind Speed Gust Speed Precip Events Conditions
12:15 AM - - - N/A% 29.96 in 10.0 mi SSW 5.8 mph - N/A   Clear
12:35 AM - - - N/A% 29.97 in 10.0 mi SSW 3.5 mph - N/A   Clear
12:55 AM - - - N/A% 29.97 in 10.0 mi South 5.8 mph - N/A   Clear
1:15 AM - - - N/A% 29.96 in 10.0 mi SSW 5.8 mph - N/A   Clear
1:35 AM - - - N/A% 29.95 in 10.0 mi SW 4.6 mph - N/A   Clear
1:55 AM - - - N/A% 29.94 in 10.0 mi WSW 4.6 mph - N/A   Clear
2:15 AM - - - N/A% 29.94 in 10.0 mi SSW 3.5 mph - N/A   Clear
2:35 AM - - - N/A% 29.93 in 10.0 mi South 5.8 mph - N/A   Clear
2:55 AM - - - N/A% 29.93 in 10.0 mi South 4.6 mph - N/A   Clear
3:15 AM - - - N/A% 29.92 in 10.0 mi SW 3.5 mph - N/A   Clear
3:35 AM - - - N/A% 29.92 in 10.0 mi SSW 5.8 mph - N/A   Clear
3:55 AM - - - N/A% 29.92 in 10.0 mi SW 3.5 mph - N/A   Clear
4:15 AM - - - N/A% 29.92 in 10.0 mi SW 4.6 mph - N/A   Clear
4:35 AM - - - N/A% 29.91 in 10.0 mi SW 3.5 mph - N/A   Clear
4:55 AM - - - N/A% 29.92 in 10.0 mi SSW 4.6 mph - N/A   Clear
5:15 AM - - - N/A% 29.92 in 10.0 mi South 5.8 mph - N/A   Scattered Clouds
5:35 AM - - - N/A% 29.92 in 10.0 mi SSW 3.5 mph - N/A   Scattered Clouds
5:55 AM 76.1 °F - 75.7 °F 99% 29.93 in 10.0 mi South 5.8 mph - N/A   Mostly Cloudy
6:15 AM 76.1 °F - 75.6 °F 98% 29.92 in 10.0 mi SSW 5.8 mph - N/A   Scattered Clouds
6:35 AM 76.1 °F - 75.6 °F 98% 29.93 in 10.0 mi South 5.8 mph - N/A   Scattered Clouds
6:50 AM 75.9 °F - 75.4 °F 98% 29.94 in 10.0 mi South 5.8 mph - N/A   Scattered Clouds
7:15 AM 75.6 °F - 75.2 °F 99% 29.94 in 10.0 mi South 5.8 mph - N/A   Clear
7:35 AM 76.3 °F - 75.9 °F 99% 29.95 in 10.0 mi South 8.1 mph - N/A   Clear
7:55 AM 77.2 °F - 77.0 °F 99% 29.95 in 10.0 mi South 9.2 mph - N/A   Clear
8:15 AM 77.9 °F - 77.5 °F 99% 29.95 in 10.0 mi South 8.1 mph - N/A   Clear
8:35 AM 79.3 °F - 77.9 °F 95% 29.95 in 10.0 mi South 8.1 mph - N/A   Clear
8:55 AM 80.8 °F 87.6 °F 77.4 °F 89% 29.95 in 10.0 mi South 9.2 mph - N/A   Clear
9:15 AM 81.7 °F 90.0 °F 77.7 °F 88% 29.95 in 10.0 mi South 8.1 mph - N/A   Clear
9:35 AM 81.9 °F 89.5 °F 76.5 °F 84% 29.95 in 10.0 mi South 5.8 mph - N/A   Clear
9:55 AM 82.9 °F 90.8 °F 75.7 °F 79% 29.95 in 10.0 mi SSW 8.1 mph - N/A   Scattered Clouds
10:15 AM 83.5 °F 91.6 °F 75.7 °F 77% 29.95 in 10.0 mi SSW 6.9 mph - N/A   Clear
10:35 AM 84.4 °F 93.9 °F 76.3 °F 77% 29.95 in 10.0 mi South 5.8 mph - N/A   Clear
10:55 AM 86.0 °F 96.4 °F 76.3 °F 73% 29.96 in 10.0 mi SSW 4.6 mph - N/A   Clear
11:15 AM 86.9 °F 97.8 °F 76.3 °F 71% 29.96 in 10.0 mi South 5.8 mph - N/A   Clear
11:35 AM - - - N/A% 29.96 in 10.0 mi South 4.6 mph - N/A   Scattered Clouds
11:55 AM 87.4 °F 98.2 °F 76.3 °F 69% 29.96 in 10.0 mi South 4.6 mph - N/A   Mostly Cloudy
12:15 PM 88.5 °F 99.9 °F 76.3 °F 67% 29.96 in 10.0 mi SW 5.8 mph - N/A   Mostly Cloudy
12:35 PM 87.1 °F 98.3 °F 76.6 °F 71% 29.95 in 10.0 mi SSW 4.6 mph - N/A   Mostly Cloudy
12:55 PM 89.2 °F 100.1 °F 75.7 °F 64% 29.94 in 10.0 mi South 5.8 mph - N/A   Mostly Cloudy
1:15 PM 89.6 °F 99.8 °F 75.2 °F 62% 29.93 in 10.0 mi SW 8.1 mph - N/A   Scattered Clouds
1:35 PM 90.5 °F 100.9 °F 75.0 °F 60% 29.93 in 10.0 mi South 8.1 mph - N/A   Scattered Clouds
1:55 PM 90.1 °F 100.6 °F 75.0 °F 61% 29.92 in 10.0 mi SW 5.8 mph - N/A   Scattered Clouds
2:15 PM 91.2 °F 100.8 °F 73.9 °F 57% 29.91 in 10.0 mi SW 8.1 mph - N/A   Mostly Cloudy
2:35 PM 91.9 °F 101.3 °F 73.8 °F 55% 29.90 in 10.0 mi South 8.1 mph - N/A   Scattered Clouds
2:55 PM 92.8 °F 102.8 °F 73.8 °F 54% 29.90 in 10.0 mi SW 11.5 mph - N/A   Scattered Clouds
3:15 PM 92.3 °F 101.5 °F 73.2 °F 54% 29.89 in 10.0 mi SW 9.2 mph - N/A   Clear
3:35 PM 92.3 °F 102.8 °F 74.5 °F 56% 29.89 in 10.0 mi WSW 15.0 mph 20.7 mph N/A   Scattered Clouds
3:55 PM 91.4 °F 98.9 °F 72.0 °F 53% 29.88 in 10.0 mi SW 12.7 mph 17.3 mph N/A   Clear
4:15 PM 91.6 °F 97.7 °F 70.3 °F 50% 29.88 in 10.0 mi WSW 10.4 mph - N/A   Clear
4:35 PM 91.2 °F 99.1 °F 72.7 °F 54% 29.88 in 10.0 mi SSW 10.4 mph - N/A   Clear
4:55 PM 91.6 °F 98.2 °F 70.9 °F 51% 29.89 in 10.0 mi WSW 11.5 mph - N/A   Clear
5:15 PM 91.6 °F 98.8 °F 72.0 °F 52% 29.88 in 10.0 mi SW 9.2 mph - N/A   Clear
5:35 PM 91.4 °F 99.5 °F 72.9 °F 54% 29.87 in 10.0 mi SW 12.7 mph 16.1 mph N/A   Clear
5:55 PM - - - N/A% 29.88 in 10.0 mi SW 10.4 mph - N/A   Clear
6:15 PM 90.1 °F 100.6 °F 75.0 °F 61% 29.87 in 10.0 mi SW 9.2 mph - N/A   Scattered Clouds
6:35 PM 88.3 °F 97.4 °F 74.5 °F 63% 29.87 in 10.0 mi WSW 6.9 mph - N/A   Clear
6:55 PM 79.0 °F - 67.8 °F 69% 29.90 in 10.0 mi NNW 23.0 mph 31.1 mph N/A Thunderstorm Scattered Clouds
7:15 PM 73.9 °F - 71.2 °F 91% 29.90 in 7.0 mi North 17.3 mph 33.4 mph N/A Rain , Thunderstorm Light Thunderstorms and Rain
7:35 PM 72.7 °F - 72.5 °F 99% 29.93 in 2.0 mi NW 12.7 mph 27.6 mph 0.20 in Rain , Thunderstorm Heavy Thunderstorms and Rain
7:55 PM - - - N/A% 29.92 in 7.0 mi NW 6.9 mph - 0.26 in Rain , Thunderstorm Light Thunderstorms and Rain
8:15 PM - - - N/A% 29.93 in 10.0 mi West 5.8 mph - 0.01 in Rain , Thunderstorm Light Thunderstorms and Rain
8:35 PM - - - N/A% 29.91 in 10.0 mi SW 4.6 mph - 0.01 in Rain , Thunderstorm Light Thunderstorms and Rain
8:55 PM - - - N/A% 29.92 in 10.0 mi SW 3.5 mph - 0.02 in Rain , Thunderstorm Light Thunderstorms and Rain
9:15 PM - - - N/A% 29.93 in 10.0 mi SW 5.8 mph - 0.01 in Rain Light Rain
9:35 PM - - - N/A% 29.94 in 10.0 mi WSW 8.1 mph - 0.03 in Rain Rain
9:55 PM - - - N/A% 29.94 in 10.0 mi WNW 3.5 mph - 0.06 in Rain , Thunderstorm Thunderstorms and Rain
10:15 PM - - - N/A% 29.92 in 10.0 mi SSW 5.8 mph - 0.02 in Rain Light Rain
10:35 PM - - - N/A% 29.92 in 10.0 mi SSW 6.9 mph - 0.02 in Rain Light Rain
10:55 PM - - - N/A% 29.92 in 10.0 mi SW 5.8 mph - 0.03 in Rain Light Rain
11:15 PM - - - N/A% 29.94 in 10.0 mi West 3.5 mph - N/A   Light Drizzle
11:35 PM - - - N/A% 29.93 in 10.0 mi Calm Calm - N/A   Scattered Clouds
11:55 PM - - - N/A% 29.92 in 10.0 mi Calm Calm - N/A   Clear